ROMMA est une association bénévole à but non lucratif. Votre soutien est indispensable : ADHERER à ROMMA ou FAIRE un DON

Saint-Vallier-de-Thiey - (06, Alpes-Maritimes)

Côte-d'Azur (723 m)   Longitude: 06° 50' 21" E   Latitude: 43° 42' 8" N Station partenaire n°150
 

Détail journalier du     <<     >>

Température Precipitation Humidité Pression Vent Dir Rafale Dir. rafale
Heure (°C) (mm) (%) (hPa) (km/h) (km/h)
01:00 11.306710181NNO6NNO
02:00 10.606910192NNO5NNO
03:00 10.706810192NNO5NNO
04:00 11.206510192NNO5NNO
05:00 10.606610192N5NNO
06:00 9.906810191N6N
07:00 9.407010192N5N
08:00 9.807310192N5N
09:00 14.106510202N5N
10:00 17.305410201N5NNE
11:00 18.004810213SE10SSE
12:00 18.504810214SSO15SSE
13:00 18.804910214SO16OSO
14:00 19.405110205SSO18OSO
15:00 20.304910195SSO16SSO
16:00 20.805110195SSO16S
17:00 19.705510195SSO16SSO
18:00 18.105910195SSO13SSO
19:00 15.606810192OSO8SSO
20:00 13.107510191OSO6O
21:00 13.007610202ONO8NO
22:00 11.707910201N5N
23:00 11.807710202N5N
minuit 11.607910191N5N

Graphique du 08-10-2019

 

Serveur OMMA